Satellite: HORYU-2 Catalog number: 38340 Epoch time: 14169.92330726 Element set: 884 Inclination: 098.2629 deg RA of node: 127.1502 deg Eccentricity: 0.0012047 Arg of perigee: 165.1075 deg Mean anomaly: 195.0480 deg Mean motion: 14.72539328 rev/day Decay rate: 8.06e-06 rev/day^2 Epoch rev: 11205 Checksum: 290
Satellite: RS-40 Catalog number: 38735 Epoch time: 14169.81479015 Element set: 599 Inclination: 082.4782 deg RA of node: 286.5253 deg Eccentricity: 0.0016034 Arg of perigee: 249.7472 deg Mean anomaly: 110.1892 deg Mean motion: 12.42560045 rev/day Decay rate: 2.4e-07 rev/day^2 Epoch rev: 8578 Checksum: 316
Satellite: PROITERES Catalog number: 38756 Epoch time: 14170.76923594 Element set: 938 Inclination: 098.2291 deg RA of node: 259.1051 deg Eccentricity: 0.0012518 Arg of perigee: 022.0376 deg Mean anomaly: 338.1368 deg Mean motion: 14.74975837 rev/day Decay rate: 2.69e-06 rev/day^2 Epoch rev: 9555 Checksum: 335
Satellite: BEESAT-3 Catalog number: 39134 Epoch time: 14170.24383379 Element set: 617 Inclination: 064.8696 deg RA of node: 132.0381 deg Eccentricity: 0.0027969 Arg of perigee: 307.2296 deg Mean anomaly: 052.6273 deg Mean motion: 15.05316168 rev/day Decay rate: 5.187e-05 rev/day^2 Epoch rev: 6397 Checksum: 324
Satellite: BEESAT-2 Catalog number: 39136 Epoch time: 14170.50800392 Element set: 603 Inclination: 064.8692 deg RA of node: 131.6832 deg Eccentricity: 0.0027961 Arg of perigee: 307.1232 deg Mean anomaly: 052.7333 deg Mean motion: 15.04703745 rev/day Decay rate: 4.517e-05 rev/day^2 Epoch rev: 6400 Checksum: 270
Satellite: LO-75 Catalog number: 39382 Epoch time: 14170.14164949 Element set: 275 Inclination: 040.4947 deg RA of node: 082.9113 deg Eccentricity: 0.0021231 Arg of perigee: 255.2096 deg Mean anomaly: 104.6317 deg Mean motion: 15.44903663 rev/day Decay rate: 5.8872e-04 rev/day^2 Epoch rev: 3236 Checksum: 307
Satellite: ZACUBE-1 Catalog number: 39417 Epoch time: 14170.47288517 Element set: 327 Inclination: 097.7737 deg RA of node: 241.0146 deg Eccentricity: 0.0061263 Arg of perigee: 234.9238 deg Mean anomaly: 124.6183 deg Mean motion: 14.78109112 rev/day Decay rate: 8.12e-06 rev/day^2 Epoch rev: 3103 Checksum: 286
Satellite: TRITON-1 Catalog number: 39427 Epoch time: 14169.75717342 Element set: 181 Inclination: 097.7638 deg RA of node: 236.1124 deg Eccentricity: 0.0117067 Arg of perigee: 245.4389 deg Mean anomaly: 113.4556 deg Mean motion: 14.65393092 rev/day Decay rate: 8.43e-06 rev/day^2 Epoch rev: 3062 Checksum: 312
Satellite: DELFIN3XT Catalog number: 39428 Epoch time: 14170.50305432 Element set: 183 Inclination: 097.7602 deg RA of node: 236.0523 deg Eccentricity: 0.0127462 Arg of perigee: 244.9143 deg Mean anomaly: 113.8783 deg Mean motion: 14.63299044 rev/day Decay rate: 1.364e-05 rev/day^2 Epoch rev: 3067 Checksum: 288
Satellite: GOMX-1 Catalog number: 39430 Epoch time: 14170.71089285 Element set: 573 Inclination: 097.7574 deg RA of node: 234.2187 deg Eccentricity: 0.0155192 Arg of perigee: 249.6828 deg Mean anomaly: 108.7629 deg Mean motion: 14.56830765 rev/day Decay rate: 7.12e-06 rev/day^2 Epoch rev: 3058 Checksum: 330
Satellite: MO-76 Catalog number: 39436 Epoch time: 14170.18227327 Element set: 242 Inclination: 097.7780 deg RA of node: 243.7673 deg Eccentricity: 0.0025270 Arg of perigee: 238.4593 deg Mean anomaly: 121.3981 deg Mean motion: 14.90174749 rev/day Decay rate: 1.0356e-04 rev/day^2 Epoch rev: 3117 Checksum: 317
Satellite: LO-74 Catalog number: 39440 Epoch time: 14170.23752075 Element set: 179 Inclination: 097.7723 deg RA of node: 239.1165 deg Eccentricity: 0.0082950 Arg of perigee: 238.3979 deg Mean anomaly: 120.9106 deg Mean motion: 14.73056495 rev/day Decay rate: 1.063e-05 rev/day^2 Epoch rev: 3088 Checksum: 320
Satellite: PUCPSAT-1 Catalog number: 39442 Epoch time: 14170.18734789 Element set: 176 Inclination: 097.7803 deg RA of node: 243.3193 deg Eccentricity: 0.0033322 Arg of perigee: 238.2944 deg Mean anomaly: 121.5023 deg Mean motion: 14.86092128 rev/day Decay rate: 2.000e-05 rev/day^2 Epoch rev: 2992 Checksum: 289
Satellite: LO-78 Catalog number: 39569 Epoch time: 14170.78621858 Element set: 342 Inclination: 051.6407 deg RA of node: 074.4364 deg Eccentricity: 0.0004283 Arg of perigee: 118.0902 deg Mean anomaly: 282.7974 deg Mean motion: 15.81997289 rev/day Decay rate: 2.23518e-03 rev/day^2 Epoch rev: 1744 Checksum: 345
Satellite: SHINAISAT Catalog number: 39572 Epoch time: 14170.88240483 Element set: 152 Inclination: 065.0087 deg RA of node: 033.5973 deg Eccentricity: 0.0016847 Arg of perigee: 281.9597 deg Mean anomaly: 077.9668 deg Mean motion: 15.69670065 rev/day Decay rate: 3.8470e-04 rev/day^2 Epoch rev: 1753 Checksum: 340
Satellite: OPUSAT Catalog number: 39575 Epoch time: 14170.54059206 Element set: 185 Inclination: 065.0014 deg RA of node: 029.3740 deg Eccentricity: 0.0015370 Arg of perigee: 281.5899 deg Mean anomaly: 078.3545 deg Mean motion: 15.90358815 rev/day Decay rate: 2.26322e-03 rev/day^2 Epoch rev: 1758 Checksum: 307
Satellite: TEIKYOSAT Catalog number: 39576 Epoch time: 14170.90865727 Element set: 156 Inclination: 065.0089 deg RA of node: 032.2147 deg Eccentricity: 0.0015522 Arg of perigee: 296.0291 deg Mean anomaly: 063.9268 deg Mean motion: 15.73353990 rev/day Decay rate: 5.2732e-04 rev/day^2 Epoch rev: 1756 Checksum: 314
Satellite: CO-77 Catalog number: 39577 Epoch time: 14170.51446030 Element set: 165 Inclination: 065.0073 deg RA of node: 031.3596 deg Eccentricity: 0.0014067 Arg of perigee: 291.7751 deg Mean anomaly: 068.2195 deg Mean motion: 15.81341089 rev/day Decay rate: 1.08501e-03 rev/day^2 Epoch rev: 1754 Checksum: 301
Satellite: STARS-II Catalog number: 39579 Epoch time: 14116.06110564 Element set: 132 Inclination: 064.9886 deg RA of node: 219.0071 deg Eccentricity: 0.0013010 Arg of perigee: 293.8065 deg Mean anomaly: 069.6132 deg Mean motion: 16.44611049 rev/day Decay rate: 2.0186783e-01 rev/day^2 Epoch rev: 902 Checksum: 288
Satellite: SPROUT Catalog number: 39770 Epoch time: 14170.76606283 Element set: 39 Inclination: 097.8721 deg RA of node: 267.8789 deg Eccentricity: 0.0008713 Arg of perigee: 311.9240 deg Mean anomaly: 048.1246 deg Mean motion: 14.82604242 rev/day Decay rate: 9.74e-06 rev/day^2 Epoch rev: 392 Checksum: 310
/EX
participants (1)
-
Ray Hoad